Consulta los datos en tiempo real de la estación municipal de Les Masies de Roda
| Hora UTC | 11:45 |
|---|---|
| Temperatura | 16.1 ºC |
| Suelo 15 cm | 22.7 ºC |
| Humedad | 58.0 % |
| Presión | 1011.0 hPa |
| Pluja | 0.0 mm |
| Velocidad viento | 6.5 km/h |
| Dirección viento | N |
| Radiación solar | 925.0 W/m² |
| Temperatura (ºC) | Humedad (%) | Presión (hPa) | Velocidad viento (km/h) | Precipitación (mm) | Radiación solar (W/m²) | ||||||||||||||
|---|---|---|---|---|---|---|---|---|---|---|---|---|---|---|---|---|---|---|---|
| Hora UTC | Aire | Suelo 15 cm | Humedad | Presión | Vel. | Dir. | Vel. Max | Dir. | Intent. máx 5 min. | Rad. Sol. | |||||||||
| 00:05 | 9.2 | 8.8 | 98.8 | 1010.6 | 0.0 | NNE | 0.0 | N | 0.0 | 0.1 | |||||||||
| 00:10 | 9.3 | 8.8 | 98.8 | 1010.4 | 0.0 | NNE | 0.0 | N | 0.0 | 0.1 | |||||||||
| 00:15 | 9.3 | 8.8 | 98.8 | 1010.6 | 0.0 | NNE | 0.0 | N | 0.0 | 0.1 | |||||||||
| 00:20 | 9.4 | 8.9 | 98.8 | 1010.4 | 0.0 | NNE | 0.0 | N | 0.0 | 0.1 | |||||||||
| 00:25 | 9.4 | 9.1 | 98.8 | 1010.5 | 0.0 | WNW | 1.4 | WNW | 0.0 | 0.1 | |||||||||
| 00:30 | 9.4 | 9.2 | 98.8 | 1010.3 | 2.2 | W | 3.5 | WNW | 0.0 | 0.1 | |||||||||
| 00:35 | 9.5 | 9.3 | 98.8 | 1010.5 | 2.8 | W | 3.9 | WNW | 0.0 | 0.1 | |||||||||
| 00:40 | 9.5 | 9.4 | 98.8 | 1010.3 | 2.0 | W | 3.5 | WSW | 0.0 | 0.1 | |||||||||
| 00:45 | 9.4 | 9.3 | 98.8 | 1010.4 | 0.0 | NNE | 0.0 | W | 0.0 | 0.1 | |||||||||
| 00:50 | 9.4 | 9.3 | 98.8 | 1010.3 | 1.6 | WSW | 3.5 | WSW | 0.0 | 0.1 | |||||||||
| 00:55 | 9.4 | 9.4 | 98.8 | 1010.4 | 2.5 | WSW | 3.5 | WSW | 0.0 | 0.1 | |||||||||
| 01:00 | 9.4 | 9.4 | 98.8 | 1010.3 | 2.6 | SSW | 3.5 | SW | 0.0 | 0.1 | |||||||||
| 01:05 | 9.4 | 9.4 | 98.9 | 1010.4 | 2.7 | W | 4.2 | NW | 0.0 | 0.1 | |||||||||
| 01:10 | 9.4 | 9.3 | 98.8 | 1010.3 | 0.4 | WNW | 2.8 | WNW | 0.0 | 0.1 | |||||||||
| 01:15 | 9.4 | 9.3 | 98.9 | 1010.4 | 1.6 | NNE | 5.3 | NNW | 0.0 | 0.1 | |||||||||
| 01:20 | 9.3 | 9.3 | 98.8 | 1010.2 | 1.3 | N | 5.0 | NNW | 0.0 | 0.1 | |||||||||
| 01:25 | 9.3 | 9.3 | 98.9 | 1010.3 | 1.1 | NNE | 3.9 | NNE | 0.0 | 0.1 | |||||||||
| 01:30 | 9.4 | 9.3 | 98.9 | 1010.2 | 1.9 | WNW | 3.9 | WNW | 0.0 | 0.1 | |||||||||
| 01:35 | 9.3 | 9.3 | 98.9 | 1010.3 | 0.4 | W | 2.1 | W | 0.0 | 0.1 | |||||||||
| 01:40 | 9.3 | 9.3 | 98.9 | 1010.2 | 2.4 | SW | 3.9 | SW | 0.0 | 0.1 | |||||||||
| 01:45 | 9.3 | 9.3 | 98.9 | 1010.3 | 1.2 | WSW | 3.2 | W | 0.0 | 0.1 | |||||||||
| 01:50 | 9.3 | 9.3 | 99.0 | 1010.1 | 2.3 | W | 3.2 | W | 0.0 | 0.1 | |||||||||
| 01:55 | 9.4 | 9.3 | 99.0 | 1010.2 | 1.7 | WSW | 2.8 | WSW | 0.0 | 0.1 | |||||||||
| 02:00 | 9.4 | 9.3 | 99.0 | 1010.1 | 1.7 | SSW | 5.3 | S | 0.0 | 0.1 | |||||||||
| 02:05 | 9.4 | 9.3 | 99.0 | 1010.1 | 4.2 | SSE | 7.1 | SSE | 0.0 | 0.1 | |||||||||
| 02:10 | 9.2 | 9.3 | 98.9 | 1010.1 | 4.7 | SE | 7.1 | SE | 0.0 | 0.1 | |||||||||
| 02:15 | 9.2 | 9.3 | 99.0 | 1010.1 | 3.3 | S | 5.7 | SSE | 0.0 | 0.1 | |||||||||
| 02:20 | 9.3 | 9.3 | 99.0 | 1010.2 | 3.3 | WSW | 5.0 | W | 0.0 | 0.1 | |||||||||
| 02:25 | 9.4 | 9.3 | 99.0 | 1010.2 | 3.5 | W | 6.7 | WNW | 0.0 | 0.1 | |||||||||
| 02:30 | 9.3 | 9.3 | 99.0 | 1010.3 | 4.5 | W | 6.4 | W | 0.0 | 0.1 | |||||||||
| 02:35 | 9.2 | 9.2 | 98.9 | 1010.3 | 4.3 | WNW | 6.4 | WNW | 0.0 | 0.1 | |||||||||
| 02:40 | 9.1 | 9.1 | 99.0 | 1010.4 | 2.8 | W | 4.6 | SW | 0.0 | 0.1 | |||||||||
| 02:45 | 9.1 | 9.1 | 99.0 | 1010.3 | 2.5 | WSW | 6.0 | SW | 0.0 | 0.1 | |||||||||
| 02:50 | 9.1 | 9.1 | 99.0 | 1010.4 | 5.2 | SW | 8.1 | SW | 0.0 | 0.1 | |||||||||
| 02:55 | 9.0 | 9.1 | 99.0 | 1010.2 | 4.4 | SW | 6.7 | SSW | 0.0 | 0.1 | |||||||||
| 03:00 | 9.0 | 9.1 | 99.0 | 1010.4 | 3.2 | SW | 5.3 | S | 0.0 | 0.1 | |||||||||
| 03:05 | 9.0 | 9.1 | 99.0 | 1010.2 | 4.8 | SSE | 6.7 | SSE | 0.0 | 0.1 | |||||||||
| 03:10 | 8.9 | 9.0 | 99.0 | 1010.3 | 2.7 | S | 4.6 | SSE | 0.0 | 0.1 | |||||||||
| 03:15 | 8.9 | 9.0 | 99.0 | 1010.2 | 2.5 | SW | 4.6 | SSW | 0.0 | 0.1 | |||||||||
| 03:20 | 8.9 | 9.0 | 99.0 | 1010.2 | 1.6 | SSW | 3.2 | S | 0.0 | 0.1 | |||||||||
| 03:25 | 8.9 | 8.9 | 99.0 | 1010.1 | 2.4 | SE | 3.9 | ESE | 0.0 | 0.1 | |||||||||
| 03:30 | 8.9 | 8.8 | 99.0 | 1010.3 | 3.8 | S | 6.4 | SSW | 0.0 | 0.1 | |||||||||
| 03:35 | 8.8 | 8.7 | 99.0 | 1010.2 | 3.7 | SSW | 6.4 | SSW | 0.0 | 0.1 | |||||||||
| 03:40 | 8.8 | 8.7 | 99.0 | 1010.2 | 3.2 | S | 6.4 | SSW | 0.0 | 0.1 | |||||||||
| 03:45 | 8.8 | 8.6 | 99.0 | 1010.3 | 3.2 | S | 5.0 | S | 0.0 | 0.1 | |||||||||
| 03:50 | 8.7 | 8.7 | 99.0 | 1010.2 | 2.8 | S | 7.1 | SSW | 0.0 | 0.1 | |||||||||
| 03:55 | 8.7 | 8.7 | 99.0 | 1010.3 | 3.9 | SSE | 6.4 | S | 0.0 | 0.1 | |||||||||
| 04:00 | 8.5 | 8.6 | 99.0 | 1010.2 | 3.8 | SSW | 6.7 | SSW | 0.0 | 0.1 | |||||||||
| 04:05 | 8.5 | 8.6 | 99.0 | 1010.4 | 2.3 | SSE | 5.0 | S | 0.0 | 0.1 | |||||||||
| 04:10 | 8.5 | 8.6 | 99.0 | 1010.3 | 2.9 | S | 5.0 | SW | 0.0 | 0.1 | |||||||||
| 04:15 | 8.5 | 8.6 | 99.1 | 1010.5 | 1.2 | SSW | 3.2 | SW | 0.0 | 0.1 | |||||||||
| 04:20 | 8.6 | 8.6 | 99.1 | 1010.3 | 3.5 | S | 5.7 | S | 0.0 | 0.1 | |||||||||
| 04:25 | 8.5 | 8.6 | 99.1 | 1010.6 | 3.6 | SSW | 5.7 | SSW | 0.0 | 0.2 | |||||||||
| 04:30 | 8.6 | 8.6 | 99.1 | 1010.4 | 3.5 | SSW | 5.0 | SW | 0.0 | 0.3 | |||||||||
| 04:35 | 8.6 | 8.6 | 99.1 | 1010.5 | 4.0 | SSW | 6.0 | S | 0.0 | 0.6 | |||||||||
| 04:40 | 8.5 | 8.6 | 99.1 | 1010.4 | 4.5 | S | 6.0 | SSW | 0.0 | 1.0 | |||||||||
| 04:45 | 8.5 | 8.6 | 99.1 | 1010.5 | 4.2 | SSW | 6.4 | SW | 0.0 | 1.2 | |||||||||
| 04:50 | 8.5 | 8.6 | 99.1 | 1010.5 | 4.4 | SW | 7.8 | SSW | 0.0 | 1.7 | |||||||||
| 04:55 | 8.4 | 8.5 | 99.1 | 1010.6 | 4.2 | SSW | 5.7 | SSW | 0.0 | 2.8 | |||||||||
| 05:00 | 8.4 | 8.5 | 99.1 | 1010.5 | 3.3 | SSW | 5.7 | SSW | 0.0 | 3.7 | |||||||||
| 05:05 | 8.4 | 8.5 | 99.1 | 1010.5 | 4.0 | S | 5.7 | SSE | 0.0 | 5.0 | |||||||||
| 05:10 | 8.4 | 8.5 | 99.1 | 1010.7 | 4.2 | S | 6.7 | S | 0.0 | 6.4 | |||||||||
| 05:15 | 8.4 | 8.5 | 99.1 | 1010.6 | 3.3 | W | 7.4 | W | 0.0 | 8.7 | |||||||||
| 05:20 | 8.3 | 8.4 | 99.1 | 1010.8 | 3.3 | SW | 4.6 | SW | 0.0 | 11.2 | |||||||||
| 05:25 | 8.3 | 8.4 | 99.1 | 1010.7 | 3.6 | WSW | 7.1 | SW | 0.0 | 13.0 | |||||||||
| 05:30 | 8.2 | 8.4 | 99.1 | 1011.0 | 3.8 | WSW | 6.0 | SW | 0.0 | 13.8 | |||||||||
| 05:35 | 8.1 | 8.4 | 99.1 | 1010.9 | 3.2 | SSW | 6.0 | SW | 0.0 | 18.1 | |||||||||
| 05:40 | 8.0 | 8.4 | 99.0 | 1011.2 | 5.0 | SSE | 9.2 | SSE | 0.0 | 21.5 | |||||||||
| 05:45 | 7.8 | 8.4 | 99.0 | 1011.1 | 3.1 | SSE | 5.7 | SSE | 0.0 | 27.1 | |||||||||
| 05:50 | 7.9 | 8.4 | 99.1 | 1011.3 | 2.0 | S | 3.9 | SSE | 0.0 | 40.3 | |||||||||
| 05:55 | 8.2 | 8.6 | 99.1 | 1011.2 | 3.2 | W | 5.0 | SW | 0.0 | 59.4 | |||||||||
| 06:00 | 8.2 | 8.8 | 99.1 | 1011.4 | 3.6 | W | 5.0 | W | 0.0 | 59.4 | |||||||||
| 06:05 | 8.2 | 8.8 | 99.0 | 1011.3 | 1.7 | WSW | 3.9 | WNW | 0.0 | 55.1 | |||||||||
| 06:10 | 8.1 | 8.8 | 99.0 | 1011.4 | 2.4 | WNW | 4.2 | W | 0.0 | 60.7 | |||||||||
| 06:15 | 8.1 | 8.8 | 99.0 | 1011.4 | 0.8 | NW | 3.5 | NW | 0.0 | 64.0 | |||||||||
| 06:20 | 8.3 | 9.0 | 99.0 | 1011.5 | 4.0 | NNW | 6.0 | NNW | 0.0 | 91.5 | |||||||||
| 06:25 | 8.3 | 9.2 | 98.9 | 1011.4 | 5.1 | NNW | 6.7 | NNW | 0.0 | 124.9 | |||||||||
| 06:30 | 8.6 | 9.6 | 98.9 | 1011.4 | 4.4 | NW | 7.4 | NW | 0.0 | 254.2 | |||||||||
| 06:35 | 8.7 | 10.4 | 98.5 | 1011.4 | 3.8 | NNW | 6.4 | NNW | 0.0 | 280.3 | |||||||||
| 06:40 | 8.9 | 10.9 | 98.6 | 1011.4 | 2.3 | W | 5.7 | W | 0.0 | 211.9 | |||||||||
| 06:45 | 9.3 | 11.4 | 98.6 | 1011.5 | 4.8 | W | 7.4 | W | 0.0 | 190.3 | |||||||||
| 06:50 | 9.3 | 11.7 | 98.3 | 1011.5 | 4.4 | W | 6.7 | W | 0.0 | 144.3 | |||||||||
| 06:55 | 9.1 | 11.6 | 98.1 | 1011.6 | 4.2 | W | 7.4 | W | 0.0 | 128.7 | |||||||||
| 07:00 | 9.2 | 11.4 | 97.9 | 1011.5 | 3.4 | WNW | 5.7 | WNW | 0.0 | 139.0 | |||||||||
| 07:05 | 9.3 | 11.5 | 97.8 | 1011.6 | 2.9 | W | 4.6 | WSW | 0.0 | 171.9 | |||||||||
| 07:10 | 9.6 | 12.0 | 97.7 | 1011.6 | 4.2 | W | 7.4 | W | 0.0 | 332.2 | |||||||||
| 07:15 | 10.0 | 13.0 | 97.5 | 1011.5 | 5.7 | WSW | 8.8 | W | 0.0 | 241.9 | |||||||||
| 07:20 | 10.0 | 13.4 | 96.4 | 1011.6 | 6.0 | W | 10.3 | WSW | 0.0 | 260.0 | |||||||||
| 07:25 | 10.2 | 13.7 | 95.7 | 1011.5 | 5.0 | SW | 6.7 | SW | 0.0 | 305.2 | |||||||||
| 07:30 | 10.5 | 14.1 | 94.0 | 1011.6 | 5.2 | W | 8.5 | WNW | 0.0 | 454.0 | |||||||||
| 07:35 | 10.9 | 15.0 | 89.3 | 1011.5 | 8.3 | W | 11.7 | WSW | 0.0 | 525.0 | |||||||||
| 07:40 | 11.3 | 15.7 | 85.7 | 1011.6 | 6.5 | WNW | 11.0 | WSW | 0.0 | 362.0 | |||||||||
| 07:45 | 11.1 | 15.6 | 85.1 | 1011.5 | 7.5 | W | 12.4 | W | 0.0 | 244.6 | |||||||||
| 07:50 | 10.9 | 14.7 | 84.2 | 1011.7 | 6.8 | WNW | 12.0 | NW | 0.0 | 225.1 | |||||||||
| 07:55 | 10.7 | 13.9 | 83.3 | 1011.6 | 6.8 | SW | 12.4 | SW | 0.0 | 178.8 | |||||||||
| 08:00 | 10.6 | 13.4 | 82.5 | 1011.8 | 4.3 | WNW | 7.4 | WSW | 0.0 | 280.0 | |||||||||
| 08:05 | 10.7 | 13.3 | 83.4 | 1011.6 | 5.9 | WNW | 9.9 | WNW | 0.0 | 192.9 | |||||||||
| 08:10 | 10.6 | 12.9 | 81.7 | 1011.8 | 4.9 | WNW | 7.8 | WNW | 0.0 | 169.6 | |||||||||
| 08:15 | 10.6 | 12.7 | 81.9 | 1011.7 | 2.9 | W | 6.0 | W | 0.0 | 195.4 | |||||||||
| 08:20 | 10.9 | 12.8 | 83.3 | 1011.8 | 3.5 | WSW | 6.0 | W | 0.0 | 233.7 | |||||||||
| 08:25 | 11.2 | 13.3 | 78.2 | 1011.8 | 1.2 | SW | 4.6 | S | 0.0 | 407.6 | |||||||||
| 08:30 | 11.8 | 15.0 | 76.0 | 1011.8 | 3.4 | SE | 7.4 | ESE | 0.0 | 733.9 | |||||||||
| 08:35 | 12.7 | 17.3 | 72.6 | 1011.9 | 2.5 | ESE | 6.7 | ESE | 0.0 | 843.0 | |||||||||
| 08:40 | 13.3 | 18.5 | 70.4 | 1011.8 | 4.0 | SSW | 9.2 | W | 0.0 | 344.9 | |||||||||
| 08:45 | 12.9 | 17.7 | 74.9 | 1012.0 | 5.2 | W | 7.8 | WSW | 0.0 | 227.1 | |||||||||
| 08:50 | 12.0 | 16.5 | 77.1 | 1011.9 | 5.2 | W | 8.5 | W | 0.0 | 286.9 | |||||||||
| 08:55 | 12.1 | 16.4 | 74.7 | 1011.9 | 2.2 | WSW | 5.7 | WNW | 0.0 | 505.6 | |||||||||
| 09:00 | 12.2 | 17.3 | 71.6 | 1012.0 | 0.7 | N | 2.8 | ESE | 0.0 | 836.0 | |||||||||
| 09:05 | 12.8 | 18.6 | 69.1 | 1012.0 | 1.7 | ESE | 5.0 | SW | 0.0 | 693.6 | |||||||||
| 09:10 | 13.0 | 18.9 | 70.1 | 1012.1 | 1.7 | NW | 5.7 | SSE | 0.0 | 675.1 | |||||||||
| 09:15 | 13.7 | 19.4 | 72.2 | 1012.0 | 6.0 | SSW | 10.3 | SSW | 0.0 | 810.0 | |||||||||
| 09:20 | 13.9 | 20.3 | 68.9 | 1012.1 | 2.9 | SSW | 7.4 | S | 0.0 | 885.0 | |||||||||
| 09:25 | 14.1 | 20.8 | 66.9 | 1012.0 | 3.0 | SSW | 5.7 | WNW | 0.0 | 801.0 | |||||||||
| 09:30 | 13.8 | 20.3 | 69.5 | 1012.2 | 6.3 | WNW | 12.0 | W | 0.0 | 797.8 | |||||||||
| 09:35 | 13.5 | 20.0 | 69.9 | 1012.0 | 5.5 | NW | 11.7 | W | 0.0 | 812.0 | |||||||||
| 09:40 | 13.1 | 19.2 | 68.0 | 1012.2 | 4.4 | N | 7.4 | N | 0.0 | 444.8 | |||||||||
| 09:45 | 13.0 | 18.6 | 68.2 | 1012.1 | 3.0 | NE | 6.4 | ENE | 0.0 | 836.0 | |||||||||
| 09:50 | 13.4 | 19.7 | 64.4 | 1012.1 | 5.2 | ENE | 7.4 | E | 0.0 | 835.0 | |||||||||
| 09:55 | 13.7 | 20.3 | 65.5 | 1012.0 | 1.6 | ENE | 7.1 | NNE | 0.0 | 827.0 | |||||||||
| 10:00 | 14.0 | 20.4 | 63.5 | 1012.1 | 3.4 | ESE | 6.7 | ENE | 0.0 | 847.0 | |||||||||
| 10:05 | 14.1 | 21.0 | 65.0 | 1012.0 | 3.5 | NE | 6.4 | NE | 0.0 | 842.0 | |||||||||
| 10:10 | 14.2 | 20.9 | 65.3 | 1012.0 | 6.0 | NNW | 8.5 | NNW | 0.0 | 836.0 | |||||||||
| 10:15 | 14.3 | 20.8 | 68.3 | 1011.9 | 4.9 | WNW | 7.8 | WNW | 0.0 | 843.0 | |||||||||
| 10:20 | 14.4 | 20.9 | 66.2 | 1011.8 | 6.2 | WNW | 8.5 | W | 0.0 | 843.0 | |||||||||
| 10:25 | 14.7 | 21.1 | 65.2 | 1011.8 | 5.2 | NNW | 7.8 | N | 0.0 | 853.0 | |||||||||
| 10:30 | 14.4 | 21.4 | 63.0 | 1011.7 | 3.0 | ESE | 6.4 | N | 0.0 | 858.0 | |||||||||
| 10:35 | 14.7 | 21.9 | 61.5 | 1011.7 | 3.7 | SE | 6.7 | ESE | 0.0 | 875.0 | |||||||||
| 10:40 | 15.0 | 22.2 | 62.5 | 1011.6 | 5.9 | NNE | 9.9 | NNW | 0.0 | 873.0 | |||||||||
| 10:45 | 14.9 | 21.9 | 62.5 | 1011.7 | 6.7 | N | 12.4 | NNW | 0.0 | 879.0 | |||||||||
| 10:50 | 15.0 | 21.9 | 64.4 | 1011.5 | 3.7 | NNW | 9.5 | N | 0.0 | 883.0 | |||||||||
| 10:55 | 15.4 | 22.4 | 63.1 | 1011.6 | 6.4 | NNE | 14.1 | NNE | 0.0 | 888.0 | |||||||||
| 11:00 | 15.4 | 22.4 | 61.4 | 1011.4 | 10.1 | NNE | 17.0 | NNE | 0.0 | 891.0 | |||||||||
| 11:05 | 15.3 | 22.3 | 62.9 | 1011.5 | 6.1 | NNE | 13.8 | N | 0.0 | 893.0 | |||||||||
| 11:10 | 15.4 | 22.8 | 59.9 | 1011.3 | 2.8 | NNE | 7.1 | NNE | 0.0 | 898.0 | |||||||||
| 11:15 | 15.8 | 23.3 | 61.9 | 1011.4 | 6.9 | NNE | 13.4 | NE | 0.0 | 910.0 | |||||||||
| 11:20 | 15.8 | 23.2 | 60.2 | 1011.3 | 5.5 | NE | 12.4 | NE | 0.0 | 934.0 | |||||||||
| 11:25 | 16.0 | 24.0 | 58.9 | 1011.3 | 4.6 | NNE | 9.5 | NE | 0.0 | 969.0 | |||||||||
| 11:30 | 16.0 | 24.1 | 59.9 | 1011.2 | 4.2 | NNW | 9.2 | NNW | 0.0 | 930.0 | |||||||||
| 11:35 | 16.1 | 23.9 | 59.9 | 1011.2 | 6.1 | N | 10.3 | N | 0.0 | 920.0 | |||||||||
| 11:40 | 16.4 | 23.6 | 59.7 | 1011.1 | 10.1 | NNW | 19.8 | NNW | 0.0 | 922.0 | |||||||||
| 11:45 | 16.1 | 22.7 | 58.0 | 1011.0 | 6.5 | N | 12.0 | NNW | 0.0 | 925.0 | |||||||||
| Máxima | 16.4 | 24.1 | 99.1 | 1012.2 | 10.1 | NNW | 19.8 | NNW | 0.0 | 969.0 | |||||||||
| Mínima | 7.8 | 8.4 | 58.0 | 1010.1 | |||||||||||||||
| Total | 0.0 | ||||||||||||||||||